Location: Fairmont
(43.6520°N, 94.4610°W)
Time: 09:15:13
(UTC-05:00)

Cosmos-2242 - Visible Passes

Search period start: 05 May 2016 00:00
Search period end: 15 May 2016 00:00
Orbit: 592 x 620 km, 82.5° (Epoch: 04 May)

Date Brightness Start Highest point End Pass type
(mag) Time Alt. Az. Time Alt. Az. Time Alt. Az.
05 May 5.3 01:10:44 10° NNE 01:13:17 18° ENE 01:13:17 18° ENE visible
05 May 4.4 02:47:31 10° NNW 02:50:09 30° NW 02:50:09 30° NW visible
06 May 4.8 01:23:22 10° NNE 01:26:20 27° NE 01:26:20 27° NE visible
06 May 4.9 03:01:09 10° NW 03:03:12 20° WNW 03:03:12 20° WNW visible
07 May 4.3 01:36:17 10° N 01:39:24 39° NE 01:39:24 39° NE visible
07 May 5.3 03:15:11 10° NW 03:16:16 13° WNW 03:16:16 13° WNW visible
08 May 4.0 01:49:23 10° N 01:52:29 46° N 01:52:29 46° N visible
09 May 5.5 00:26:42 10° NE 00:28:42 14° ENE 00:28:42 14° ENE visible
09 May 4.1 02:02:39 10° NNW 02:05:34 39° NW 02:05:34 39° NW visible
10 May 5.0 00:38:58 10° NNE 00:41:47 21° ENE 00:41:47 21° ENE visible
10 May 4.6 02:16:06 10° NNW 02:18:40 27° NW 02:18:40 27° NW visible
11 May 4.5 00:51:43 10° N 00:54:54 32° NE 00:54:54 32° NE visible
11 May 5.1 02:29:49 10° NW 02:31:46 18° WNW 02:31:46 18° WNW visible
12 May 4.0 01:04:42 10° N 01:08:01 45° NNE 01:08:01 45° NNE visible
12 May 5.5 02:44:08 10° WNW 02:44:53 12° WNW 02:44:53 12° WNW visible
13 May 3.8 01:17:51 10° N 01:21:08 50° NNW 01:21:08 50° NNW visible
13 May 5.2 23:54:45 10° NNE 23:57:24 16° ENE 23:57:24 16° ENE visible
14 May 4.1 01:31:10 10° NNW 01:34:16 38° NW 01:34:16 38° NW visible
